Home   Weather   Willemstad   Past weeks

Flag for Curaçao Past Weather in Willemstad, Curaçao — Yesterday and Last 2 Weeks

Now
79 °F

Passing clouds.


Feels Like: 81 °F
Forecast: 78 / 83 °F
Wind: 13 mph from East

Location: Hato Airport - Curacao

Current Time: Feb 19, 2017 at 9:57:20 pm

Latest Report: Feb 19, 2017 at 9:00 pm


Visibility: N/A

Pressure: 29.98 "Hg

Humidity: 74%

Dew Point: 70 °F

Location of WillemstadLocation

Past Weather in Willemstad — Graph

°F

Willemstad Temperature Yesterday

Maximum temperature yesterday: 84 °F (at 11:00 am)
Minimum temperature yesterday: 72 °F (at 3:00 am)
Average temperature yesterday: 78 °F

High & Low Weather Summary for the Past Weeks

 TemperatureHumidityPressure
High86 °F (Feb 7, 12:00 pm)94% (Feb 12, 4:00 am)30.07 "Hg (Feb 12, 4:00 am)
Low72 °F (Feb 18, 3:00 am)46% (Feb 15, 3:00 pm)29.86 "Hg (Feb 7, 5:00 pm)
Average80 °F74%29.96 "Hg
* Reported Feb 4 8:00 pm — Feb 19 8:00 pm, Willemstad, Weather by CustomWeather, © 2017

Note: Actual official high and low records may vary slightly from our data, if they occured in-between our weather recording intervals... More about our weather records

Advertising

Willemstad Weather History for the Previous 24 Hours

Scroll right to see more
 ConditionsComfort  
Time TempWeatherWind HumidityBarometerVisibility
8:00 pm
Sun, Feb 19
79 °FPassing clouds.14 mph74%29.95 "HgN/A
7:00 pm79 °FPassing clouds.10 mph74%29.92 "HgN/A
6:00 pm81 °FPassing clouds.12 mph70%29.92 "HgN/A
5:00 pm82 °FScattered clouds.13 mph66%29.92 "HgN/A
4:00 pm82 °FScattered clouds.14 mph66%29.95 "HgN/A
3:00 pm81 °FScattered clouds.13 mph74%29.95 "HgN/A
2:00 pm86 °FScattered clouds.16 mph59%29.98 "HgN/A
1:00 pm82 °FScattered clouds.15 mph66%30.01 "HgN/A
12:00 pm82 °FScattered clouds.14 mph66%30.01 "HgN/A
11:00 am82 °FScattered clouds.14 mph66%30.04 "HgN/A
10:00 am82 °FScattered clouds.13 mph70%30.04 "HgN/A
9:00 am81 °FScattered clouds.12 mph74%30.04 "HgN/A
8:00 am79 °FPassing clouds.10 mph74%30.01 "HgN/A
7:00 am73 °FPassing clouds.6 mph83%29.98 "HgN/A
6:00 am72 °FPassing clouds.7 mph83%29.98 "HgN/A
5:00 am72 °FPassing clouds.6 mph83%29.95 "HgN/A
4:00 am73 °FPassing clouds.7 mph78%29.95 "HgN/A
2:00 am75 °FPassing clouds.6 mph78%29.98 "HgN/A
1:00 am75 °FPassing clouds.7 mph74%29.98 "HgN/A
12:00 am75 °FPassing clouds.7 mph74%30.01 "HgN/A
11:00 pm
Sat, Feb 18
77 °FPassing clouds.12 mph69%30.01 "HgN/A
10:00 pm77 °FPassing clouds.10 mph74%30.01 "HgN/A
9:00 pm77 °FPassing clouds.12 mph69%30.01 "HgN/A
Weather by CustomWeather, © 2017

See weather overviewHow to use our weather pages